Theta_e
309 308 309 310 310 310 311 310 309 308 308 308 308 309 309 309 308 311 310 311 310 311 310 312 308 308 312 321 323 322 325 325 324 324 324 322 324 324 325 326 329 334 334 332 330
307 308 309 308 308 309 309 309 311 309 308 309 310 309 307 306 309 310 309 310 309 309 308 308 311 314 314 318 322 324 326 326 322 321 321 322 323 322 325 324 325 333 331 332 330
308 308 306 308 309 310 310 310 308 310 308 309 309 306 304 306 309 309 307 307 307 309 308 307 308 312 317 315 319 323 324 319 318 319 321 323 322 322 322 324 326 327 333 331 330
307 304 304 308 309 310 310 309 308 309 309 309 306 305 305 308 309 307 304 305 305 307 308 306 308 311 314 316 317 321 321 321 321 319 323 322 321 320 319 320 322 322 332 331 331
307 301 302 305 305 306 308 309 308 308 307 307 305 305 308 307 307 304 304 303 304 305 306 309 309 313 312 313 314 319 320 319 320 322 324 324 322 321 320 320 320 322 326 331 331
306 301 302 302 301 300 302 305 307 308 307 306 304 306 307 308 304 304 305 305 305 304 304 307 309 309 309 312 314 314 315 317 318 322 323 324 323 321 322 319 319 321 323 326 331
305 301 302 302 301 300 301 304 305 305 305 305 303 308 307 306 305 307 306 306 306 306 306 306 307 311 309 308 310 310 311 311 313 317 321 321 323 323 320 320 320 320 321 323 326
305 301 301 301 300 301 302 303 304 303 302 303 304 307 306 305 307 307 307 308 307 306 306 306 307 309 309 310 307 307 309 310 309 308 312 317 317 315 317 318 319 320 320 323 324
305 301 301 300 300 302 303 304 305 303 303 305 309 308 308 307 307 307 307 306 307 307 306 306 307 310 310 310 310 308 308 310 310 310 309 313 316 316 315 314 314 318 319 320 322
305 302 301 300 301 303 304 305 305 308 307 307 308 311 308 307 307 306 307 307 308 308 309 309 309 310 311 312 318 313 311 310 309 308 307 307 310 313 312 312 312 314 315 317 318
304 302 301 300 301 303 305 308 308 310 305 306 305 307 307 306 307 307 307 308 308 309 310 309 310 313 313 312 311 310 311 309 309 309 310 308 307 307 307 307 309 309 311 313 315
302 302 301 300 301 306 306 305 304 303 307 305 305 307 306 306 308 308 308 309 310 311 310 311 312 310 309 309 309 309 311 311 310 310 308 308 308 308 308 308 307 309 313 316 316
301 302 300 300 302 306 305 305 305 304 309 307 306 308 307 308 308 309 308 308 310 311 311 312 310 310 310 310 310 311 311 311 312 310 309 309 309 309 308 308 307 307 307 312 313
301 302 300 299 304 303 306 305 305 305 313 307 308 310 308 306 309 307 308 308 310 311 311 311 311 310 311 311 311 311 310 309 310 310 312 309 310 309 309 309 308 307 307 306 306
300 302 300 299 303 304 305 304 305 306 320 305 306 305 306 307 307 311 308 308 310 310 310 311 312 312 312 311 310 311 309 310 310 311 311 310 308 309 309 308 309 308 307 307 307
301 302 300 304 303 302 302 303 306 312 313 303 305 305 307 308 308 309 310 307 308 310 310 310 309 310 310 310 310 309 310 310 310 310 312 310 310 310 309 308 307 307 306 306 306
301 302 302 302 305 302 302 305 310 311 304 304 304 305 307 309 309 310 309 312 312 313 311 310 312 310 309 310 310 310 311 305 312 310 304 309 310 309 308 307 307 307 306 305 306
302 301 301 300 302 301 304 305 309 300 304 304 305 306 308 307 308 308 309 312 310 310 311 310 308 312 309 310 312 313 311 308 311 312 310 309 310 308 309 310 309 308 308 308 308
302 302 304 301 301 302 306 307 306 306 305 305 306 307 308 307 307 308 308 312 310 309 310 310 309 310 310 310 310 311 313 311 313 307 310 308 307 307 309 308 306 306 307 309 308
302 303 304 301 301 304 302 305 302 303 305 305 306 305 306 307 306 306 308 310 309 309 307 307 309 306 309 307 309 310 309 312 309 306 308 307 308 312 308 307 305 304 305 306 306
302 305 302 301 302 303 305 302 301 302 304 304 303 305 306 306 305 306 307 310 309 307 305 307 309 307 308 310 312 311 311 311 310 312 312 310 307 307 305 305 305 304 304 304 305
303 302 300 300 302 297 302 300 300 303 303 305 305 305 305 304 305 306 308 307 304 303 304 308 308 308 309 309 308 310 313 311 312 313 310 310 308 304 305 304 302 300 302 301 302
300 302 300 301 305 301 299 301 302 304 305 304 305 305 305 305 305 306 306 304 303 303 307 307 309 309 312 308 308 310 309 311 312 312 312 312 308 304 303 302 301 300 298 298 299
302 302 301 302 302 302 301 301 302 302 304 304 304 304 304 304 305 305 305 304 303 304 305 305 307 310 312 312 309 304 305 307 309 311 312 312 307 304 302 302 300 299 297 296 295
300 301 297 302 300 301 301 301 302 302 303 303 304 304 305 301 299 301 304 303 302 304 303 305 307 309 307 308 309 309 306 304 307 308 311 307 305 303 303 301 299 298 297 297 296
297 298 295 299 300 301 301 301 302 302 302 303 304 304 303 304 303 300 303 303 302 302 301 303 307 305 304 306 309 310 307 306 302 304 310 307 304 303 302 300 299 298 297 297 296
298 296 301 299 301 302 302 301 300 301 301 302 303 302 302 303 301 301 300 301 301 301 301 302 304 307 312 309 306 310 306 306 307 305 307 306 306 304 303 302 300 297 297 296 294
Wind_Speed
10 11 11 13 13 12 12 11 11 11 11 12 13 15 16 18 14 5 11 10 14 18 16 12 10 8 9 6 14 8 8 10 15 13 9 8 3 2 4 4 4 4 5 1 22
11 12 13 13 13 13 12 10 9 10 11 13 15 17 17 17 12 12 11 14 15 15 15 12 10 6 4 5 5 7 9 10 12 9 10 6 4 7 2 5 6 5 8 19 23
10 11 13 13 12 14 13 11 9 9 10 12 14 16 18 11 4 6 13 16 15 13 12 8 7 5 6 9 12 8 12 9 12 8 6 10 10 6 6 4 5 6 8 15 18
11 12 12 12 11 13 14 12 9 9 9 11 13 16 11 5 3 5 13 15 15 12 14 8 3 2 4 7 10 14 14 15 16 14 7 4 8 8 8 8 8 7 7 8 9
11 11 12 11 12 13 12 12 9 8 9 10 12 13 8 4 5 6 12 13 10 13 15 11 8 7 4 6 9 11 13 14 10 7 1 7 9 9 11 11 5 10 5 8 9
12 12 12 11 12 13 12 10 8 8 8 9 10 11 6 2 5 9 11 11 9 11 10 11 7 7 5 5 6 9 11 12 11 3 3 8 11 10 8 10 16 7 8 7 8
11 11 12 13 14 15 12 10 10 8 7 8 9 8 4 5 8 10 11 8 8 7 7 7 7 7 7 5 7 7 9 12 11 9 9 5 15 17 15 14 15 10 9 9 9
10 11 13 14 16 15 12 13 9 7 6 7 6 5 3 3 6 9 9 8 9 7 5 8 8 6 3 8 4 3 4 3 9 13 10 11 13 12 15 18 17 15 12 9 11
9 11 13 14 16 14 15 13 8 4 5 2 4 5 3 3 7 8 9 10 13 5 6 6 6 4 2 4 3 5 4 6 7 5 4 14 5 11 15 15 13 16 14 12 11
9 11 13 15 15 15 13 8 5 6 4 2 2 3 3 7 9 11 5 8 5 8 2 2 2 3 4 3 1 7 4 5 4 3 6 10 11 12 13 11 10 8 8 8 9
9 11 12 14 13 14 15 8 3 2 8 4 2 1 2 13 5 3 6 6 4 4 5 5 3 3 7 5 8 9 9 9 11 12 12 7 11 11 11 11 11 13 9 10 9
7 10 11 13 10 14 8 5 5 3 3 1 1 0 2 6 4 7 6 5 5 5 4 2 3 4 5 5 5 6 8 10 11 4 7 11 17 14 15 18 17 11 10 9 9
5 7 9 12 5 7 12 8 5 6 4 2 2 2 3 6 6 6 7 4 4 6 4 3 8 12 9 3 6 5 5 7 11 12 9 15 14 12 12 22 18 14 11 8 9
4 5 9 8 4 4 4 5 6 6 0 5 1 3 2 6 2 6 4 5 1 5 8 4 5 6 7 7 6 6 6 7 7 5 4 11 6 7 8 5 12 18 14 13 9
3 4 6 7 3 2 3 7 5 1 1 5 3 1 5 3 7 3 4 3 4 6 4 5 8 8 9 5 4 2 8 8 8 7 7 4 3 6 5 4 2 5 7 17 15
3 3 4 3 3 1 3 4 2 1 1 3 3 5 6 0 4 2 2 1 1 3 4 10 6 5 3 9 5 5 4 9 6 2 3 9 6 2 1 7 14 15 10 10 8
4 3 1 2 2 3 5 2 1 4 1 5 3 5 4 4 4 1 5 2 4 5 5 8 1 4 2 5 1 1 2 3 1 2 5 1 5 8 15 14 8 11 10 10 9
4 1 2 0 1 4 2 2 3 2 1 2 3 5 4 8 5 8 5 2 5 3 4 6 4 3 4 3 4 2 1 1 4 2 3 8 5 4 9 13 16 16 15 15 11
5 2 1 3 1 3 1 2 3 1 2 3 1 3 4 5 5 6 7 4 2 3 4 4 4 4 4 4 1 2 1 3 3 4 1 4 6 3 13 15 17 18 17 14 10
6 4 3 1 1 2 3 2 2 1 1 2 2 1 3 7 7 8 6 1 1 2 2 1 6 1 2 1 3 2 4 1 1 3 4 5 5 3 16 18 16 17 17 17 16
4 2 0 3 1 3 2 3 3 3 2 2 2 1 3 4 5 5 5 4 2 2 4 4 3 4 2 2 1 1 2 4 3 3 2 4 3 5 10 11 14 12 13 14 14
3 0 1 4 2 2 2 3 2 5 3 3 5 1 3 3 3 3 5 6 8 6 5 3 3 5 3 1 5 4 3 5 3 2 2 2 3 6 8 9 10 13 12 13 15
4 2 1 1 2 2 1 2 2 3 2 3 4 5 2 2 3 6 5 4 7 4 3 3 2 4 1 1 0 3 4 5 7 2 5 3 4 5 11 10 11 12 13 9 10
3 3 1 2 1 4 4 4 4 2 2 4 3 2 2 3 3 4 6 5 4 2 1 4 2 4 3 3 2 4 3 7 5 3 1 3 8 14 17 16 16 15 12 12 11
1 3 2 4 5 5 5 7 5 3 4 7 3 5 4 2 2 3 5 7 2 4 3 1 4 4 8 10 5 4 4 9 3 8 5 2 2 9 11 12 11 10 11 11 9
5 4 2 3 3 8 6 6 8 6 7 4 4 6 6 4 6 4 5 3 3 2 4 3 3 6 5 4 5 8 7 10 4 7 3 1 4 4 7 8 11 13 13 15 17
7 4 2 5 4 6 5 7 8 8 7 3 8 5 5 3 3 4 4 7 6 5 2 2 4 3 2 4 6 3 1 5 3 4 4 4 3 6 5 8 9 12 13 14 15
Wind_Direction
353 352 357 353 342 336 336 341 347 345 335 335 340 340 340 339 354 33 42 339 333 338 342 315 291 275 250 264 265 231 241 237 246 249 251 281 199 343 74 305 318 75 94 204 145
356 360 350 347 348 345 340 330 328 334 340 338 339 336 340 339 330 62 350 342 343 360 353 353 344 331 241 221 248 219 217 247 240 264 311 283 251 225 143 324 250 155 115 135 151
1 354 356 355 355 353 346 337 328 324 333 336 335 335 338 346 285 40 356 351 354 354 342 325 312 284 249 252 230 222 242 239 270 307 10 339 327 358 320 241 61 52 125 143 163
353 356 1 360 358 8 4 358 347 333 330 327 336 340 345 321 10 357 3 360 5 355 5 357 309 250 257 226 239 259 227 246 277 294 348 275 299 297 284 265 124 90 108 149 180
349 359 1 359 8 12 13 9 354 342 334 330 336 352 356 291 56 346 342 357 5 8 11 357 14 351 290 343 290 258 255 269 273 330 252 296 278 281 291 295 190 126 141 171 187
354 356 357 359 8 11 7 6 357 334 327 325 333 355 322 9 356 338 325 336 349 353 351 16 356 329 285 319 315 1 319 311 307 258 274 276 265 261 259 256 274 244 170 203 192
353 358 351 354 360 356 353 355 335 316 321 325 341 351 299 40 344 356 360 353 345 345 331 5 340 318 353 268 9 309 297 299 283 263 249 265 254 256 260 272 274 249 207 199 197
349 359 348 348 358 354 351 341 335 304 321 335 356 320 66 358 53 22 15 44 21 10 344 337 331 295 271 346 261 254 238 274 240 232 240 216 253 274 246 236 242 254 257 189 192
350 352 340 349 357 358 346 339 357 3 360 355 322 315 73 326 18 10 7 344 328 2 346 328 315 321 309 260 258 186 286 221 266 230 268 202 263 254 253 268 254 229 235 236 219
344 346 339 348 359 354 351 344 1 8 328 259 272 256 60 337 334 327 334 341 342 322 287 326 303 299 237 254 62 348 281 282 239 36 10 319 287 273 295 294 296 259 263 248 242
340 339 340 348 2 2 9 321 313 188 31 36 343 282 343 330 313 322 8 334 313 256 9 67 325 311 354 327 337 328 307 292 295 310 311 266 266 266 275 290 267 264 274 268 267
333 335 337 343 6 22 20 52 34 345 302 98 312 246 355 340 320 80 5 2 342 354 349 256 282 43 8 1 337 310 299 292 288 288 331 294 281 271 255 249 255 262 244 248 268
320 330 336 338 30 37 53 55 352 344 264 125 11 12 9 335 353 13 351 348 7 318 310 275 285 310 307 325 302 298 269 276 280 314 293 273 278 248 249 236 243 256 265 262 265
317 333 337 349 43 356 45 1 350 342 309 328 71 80 292 321 358 24 34 358 295 323 337 304 356 356 338 321 291 305 15 345 324 333 279 18 294 300 307 283 208 228 238 248 258
293 326 344 20 346 1 19 349 355 313 64 338 9 277 248 18 308 47 31 14 343 318 329 308 334 4 332 296 354 17 6 317 303 291 319 263 239 269 243 285 308 306 239 223 232
283 313 356 18 25 9 2 342 289 254 8 331 303 355 19 93 7 156 185 115 306 308 235 260 274 312 263 336 320 346 304 275 265 293 257 220 201 283 328 356 338 321 334 340 307
244 274 4 11 357 340 359 258 341 77 283 320 333 337 348 340 358 321 338 358 16 346 12 304 274 135 240 304 136 147 336 318 201 179 226 31 190 246 297 317 5 1 341 329 338
221 260 308 155 353 345 10 54 46 219 294 289 292 338 46 10 3 333 5 27 64 36 306 353 337 159 125 267 322 265 250 317 305 343 301 318 257 248 63 37 8 359 348 336 341
175 182 217 305 117 50 75 36 207 164 159 326 332 46 22 357 350 337 353 36 33 44 26 332 274 10 71 354 71 359 278 352 300 236 292 236 258 310 20 7 357 342 333 328 338
165 194 165 294 160 71 73 276 191 357 99 284 93 346 19 14 14 350 343 128 7 127 95 340 291 189 16 6 43 281 338 284 158 305 283 281 296 306 353 344 347 341 335 333 338
191 242 34 161 64 60 114 241 249 188 78 90 261 81 45 36 3 330 322 143 319 105 330 160 229 294 301 191 286 124 225 217 299 263 276 307 281 13 340 339 339 332 328 326 330
176 258 238 158 44 84 158 200 264 148 165 252 156 206 58 1 332 307 311 330 24 21 332 96 318 281 247 315 309 294 304 271 248 213 246 308 282 8 347 330 319 336 339 329 332
153 143 41 355 193 193 245 229 266 138 209 207 185 152 161 128 338 299 269 15 43 342 22 29 263 295 261 314 201 45 351 324 290 245 212 268 281 8 14 353 339 348 337 321 339
132 132 119 255 190 163 165 199 193 186 251 260 272 161 153 41 332 278 297 313 353 49 30 118 262 266 285 335 276 307 341 350 302 276 238 247 321 0 353 353 348 350 339 341 348
125 198 182 173 229 219 182 167 154 165 253 184 237 212 160 135 32 268 291 318 299 134 291 15 274 267 277 269 224 270 358 353 310 302 249 81 53 353 348 339 332 325 344 341 344
144 151 219 167 143 179 190 216 178 148 180 232 214 168 187 200 176 226 258 313 279 1 353 33 279 313 274 197 228 273 6 341 323 341 54 136 70 343 334 331 354 354 354 1 6
155 155 157 156 161 166 215 187 197 145 216 266 197 201 202 244 15 347 328 300 287 314 323 309 330 303 290 185 244 228 15 324 336 11 338 26 358 344 342 355 6 352 2 7 4